Time,TemperatureF,DewpointF,PressureIn,WindDirection,WindDirectionDegrees,WindSpeedMPH,WindSpeedGustMPH,Humidity,HourlyPrecipIn,Conditions,Clouds,dailyrainin,SoftwareType,DateUTC
2014-04-17 00:12:00,32.0,15.0,-100.00,North,-999,0.0,0.0,50,-99.99,,,-99.99,,2014-04-17 06:12:00,
2014-04-17 00:22:00,32.0,16.0,-100.00,North,-999,0.0,0.0,52,-99.99,,,-99.99,,2014-04-17 06:22:00,
2014-04-17 00:42:00,30.0,15.0,-100.00,North,-999,0.0,0.0,54,-99.99,,,-99.99,,2014-04-17 06:42:00,
2014-04-17 00:52:00,31.0,15.0,-100.00,North,-999,0.0,0.0,51,-99.99,,,-99.99,,2014-04-17 06:52:00,
2014-04-17 01:22:00,33.0,14.0,-100.00,East,96,2.0,3.0,46,-99.99,,,-99.99,,2014-04-17 07:22:00,
2014-04-17 01:42:00,33.0,15.0,-100.00,SE,128,2.0,4.0,47,-99.99,,,-99.99,,2014-04-17 07:42:00,
2014-04-17 01:52:00,32.0,15.0,-100.00,North,-999,0.0,2.0,49,-99.99,,,-99.99,,2014-04-17 07:52:00,
2014-04-17 02:11:00,31.0,15.0,-100.00,North,-999,0.0,2.0,52,-99.99,,,-99.99,,2014-04-17 08:11:00,
2014-04-17 02:21:00,30.0,15.0,-100.00,North,-999,0.0,0.0,53,-99.99,,,-99.99,,2014-04-17 08:21:00,
2014-04-17 02:42:00,30.0,15.0,-100.00,North,-999,0.0,0.0,53,-99.99,,,-99.99,,2014-04-17 08:42:00,
2014-04-17 02:52:00,30.0,15.0,-100.00,North,-999,0.0,0.0,52,-99.99,,,-99.99,,2014-04-17 08:52:00,
2014-04-17 03:12:00,31.0,15.0,-100.00,North,-999,0.0,0.0,50,-99.99,,,-99.99,,2014-04-17 09:12:00,
2014-04-17 03:22:00,31.0,15.0,-100.00,North,-999,0.0,0.0,50,-99.99,,,-99.99,,2014-04-17 09:22:00,
2014-04-17 03:43:00,31.0,15.0,-100.00,North,-999,0.0,0.0,50,-99.99,,,-99.99,,2014-04-17 09:43:00,
2014-04-17 03:54:00,31.0,15.0,-100.00,North,-999,0.0,0.0,50,-99.99,,,-99.99,,2014-04-17 09:54:00,
2014-04-17 04:13:00,31.0,15.0,-100.00,North,-999,0.0,0.0,50,-99.99,,,-99.99,,2014-04-17 10:13:00,
2014-04-17 04:23:00,31.0,14.0,-100.00,North,-999,0.0,0.0,49,-99.99,,,-99.99,,2014-04-17 10:23:00,
2014-04-17 04:42:00,31.0,15.0,-100.00,North,-999,0.0,0.0,50,-99.99,,,-99.99,,2014-04-17 10:42:00,
2014-04-17 04:53:00,31.0,15.0,-100.00,North,-999,0.0,0.0,50,-99.99,,,-99.99,,2014-04-17 10:53:00,
2014-04-17 05:12:00,31.0,14.0,-100.00,North,-999,0.0,0.0,49,-99.99,,,-99.99,,2014-04-17 11:12:00,
2014-04-17 05:22:00,31.0,15.0,-100.00,North,-999,0.0,0.0,51,-99.99,,,-99.99,,2014-04-17 11:22:00,
2014-04-17 05:42:00,31.0,15.0,-100.00,North,-999,0.0,0.0,52,-99.99,,,-99.99,,2014-04-17 11:42:00,
2014-04-17 05:53:00,31.0,16.0,-100.00,North,-999,0.0,0.0,53,-99.99,,,-99.99,,2014-04-17 11:53:00,
2014-04-17 06:12:00,31.0,16.0,-100.00,North,-999,0.0,0.0,53,-99.99,,,-99.99,,2014-04-17 12:12:00,
2014-04-17 06:22:00,31.0,16.0,-100.00,North,-999,0.0,0.0,53,-99.99,,,-99.99,,2014-04-17 12:22:00,
2014-04-17 06:42:00,31.0,16.0,-100.00,North,-999,0.0,0.0,54,-99.99,,,-99.99,,2014-04-17 12:42:00,
2014-04-17 06:52:00,31.0,17.0,-100.00,North,-999,0.0,0.0,55,-99.99,,,-99.99,,2014-04-17 12:52:00,
2014-04-17 07:12:00,31.0,16.0,-100.00,North,-999,0.0,0.0,54,-99.99,,,-99.99,,2014-04-17 13:12:00,
2014-04-17 07:22:00,31.0,16.0,-100.00,SSE,166,1.0,3.0,54,-99.99,,,-99.99,,2014-04-17 13:22:00,
2014-04-17 07:42:00,32.0,16.0,-100.00,North,-999,0.0,3.0,52,-99.99,,,-99.99,,2014-04-17 13:42:00,
2014-04-17 07:52:00,35.0,17.0,-100.00,SE,133,2.0,4.0,48,-99.99,,,-99.99,,2014-04-17 13:52:00,
2014-04-17 10:54:00,44.0,20.0,-100.00,South,185,10.0,17.0,38,-99.99,,,-99.99,,2014-04-17 16:54:00,
2014-04-17 11:12:00,44.0,20.0,-100.00,South,188,10.0,20.0,38,-99.99,,,-99.99,,2014-04-17 17:12:00,
2014-04-17 11:22:00,44.0,21.0,-100.00,South,183,11.0,19.0,40,-99.99,,,-99.99,,2014-04-17 17:22:00,
2014-04-17 12:12:00,46.0,24.0,-100.00,SSW,193,9.0,20.0,41,-99.99,,,-99.99,,2014-04-17 18:12:00,
2014-04-17 12:22:00,46.0,24.0,-100.00,South,180,12.0,20.0,42,-99.99,,,-99.99,,2014-04-17 18:22:00,
2014-04-17 12:43:00,46.0,25.0,-100.00,South,179,11.0,23.0,43,-99.99,,,-99.99,,2014-04-17 18:43:00,
2014-04-17 12:56:00,46.0,26.0,-100.00,South,176,14.0,22.0,45,-99.99,,,-99.99,,2014-04-17 18:56:00,
2014-04-17 13:12:00,47.0,26.0,-100.00,South,184,9.0,17.0,43,-99.99,,,-99.99,,2014-04-17 19:12:00,
2014-04-17 13:22:00,48.0,26.0,-100.00,South,187,9.0,18.0,42,-99.99,,,-99.99,,2014-04-17 19:22:00,
2014-04-17 13:42:00,47.0,26.0,-100.00,South,185,9.0,18.0,44,-99.99,,,-99.99,,2014-04-17 19:42:00,
2014-04-17 13:52:00,48.0,25.0,-100.00,SSW,200,9.0,18.0,41,-99.99,,,-99.99,,2014-04-17 19:52:00,
2014-04-17 14:11:00,48.0,26.0,-100.00,South,191,9.0,20.0,42,-99.99,,,-99.99,,2014-04-17 20:11:00,
2014-04-17 14:22:00,48.0,26.0,-100.00,South,181,11.0,19.0,42,-99.99,,,-99.99,,2014-04-17 20:22:00,
2014-04-17 14:42:00,49.0,26.0,-100.00,South,191,9.0,21.0,41,-99.99,,,-99.99,,2014-04-17 20:42:00,
2014-04-17 14:52:00,49.0,26.0,-100.00,South,191,9.0,21.0,41,-99.99,,,-99.99,,2014-04-17 20:52:00,
2014-04-17 15:11:00,50.0,26.0,-100.00,South,184,9.0,18.0,39,-99.99,,,-99.99,,2014-04-17 21:11:00,
2014-04-17 15:21:00,50.0,26.0,-100.00,SSW,200,8.0,16.0,39,-99.99,,,-99.99,,2014-04-17 21:21:00,
2014-04-17 15:43:00,51.0,27.0,-100.00,South,189,8.0,18.0,39,-99.99,,,-99.99,,2014-04-17 21:43:00,
2014-04-17 15:53:00,51.0,27.0,-100.00,SSW,200,8.0,19.0,39,-99.99,,,-99.99,,2014-04-17 21:53:00,
2014-04-17 16:13:00,51.0,27.0,-100.00,SSW,192,8.0,16.0,39,-99.99,,,-99.99,,2014-04-17 22:13:00,
2014-04-17 16:23:00,52.0,27.0,-100.00,SW,219,8.0,15.0,38,-99.99,,,-99.99,,2014-04-17 22:23:00,
2014-04-17 16:42:00,52.0,27.0,-100.00,SW,225,6.0,14.0,38,-99.99,,,-99.99,,2014-04-17 22:42:00,
2014-04-17 16:53:00,52.0,28.0,-100.00,SSW,196,8.0,17.0,39,-99.99,,,-99.99,,2014-04-17 22:53:00,
2014-04-17 17:12:00,52.0,28.0,-100.00,SSW,198,8.0,16.0,39,-99.99,,,-99.99,,2014-04-17 23:12:00,
2014-04-17 17:22:00,51.0,27.0,-100.00,SSW,202,8.0,18.0,39,-99.99,,,-99.99,,2014-04-17 23:22:00,
2014-04-17 17:43:00,52.0,28.0,-100.00,SSW,205,9.0,19.0,39,-99.99,,,-99.99,,2014-04-17 23:43:00,
2014-04-17 17:53:00,51.0,28.0,-100.00,SSW,213,8.0,17.0,40,-99.99,,,-99.99,,2014-04-17 23:53:00,
2014-04-17 18:12:00,52.0,28.0,-100.00,SSW,209,8.0,19.0,40,-99.99,,,-99.99,,2014-04-18 00:12:00,
2014-04-17 18:21:00,52.0,28.0,-100.00,SSW,203,8.0,15.0,40,-99.99,,,-99.99,,2014-04-18 00:21:00,
2014-04-17 18:42:00,51.0,28.0,-100.00,SSW,205,8.0,16.0,40,-99.99,,,-99.99,,2014-04-18 00:42:00,
2014-04-17 18:52:00,51.0,28.0,-100.00,SSW,202,8.0,14.0,40,-99.99,,,-99.99,,2014-04-18 00:52:00,
2014-04-17 19:12:00,51.0,28.0,-100.00,SSW,206,7.0,12.0,40,-99.99,,,-99.99,,2014-04-18 01:12:00,
2014-04-17 19:22:00,51.0,28.0,-100.00,SSW,200,8.0,17.0,41,-99.99,,,-99.99,,2014-04-18 01:22:00,
2014-04-17 19:42:00,50.0,28.0,-100.00,SSW,203,8.0,18.0,43,-99.99,,,-99.99,,2014-04-18 01:42:00,
2014-04-17 19:52:00,49.0,29.0,-100.00,SSW,210,8.0,15.0,45,-99.99,,,-99.99,,2014-04-18 01:52:00,
2014-04-17 20:11:00,49.0,29.0,-100.00,SSW,213,8.0,15.0,46,-99.99,,,-99.99,,2014-04-18 02:11:00,
2014-04-17 20:22:00,48.0,29.0,-100.00,SW,219,7.0,14.0,48,-99.99,,,-99.99,,2014-04-18 02:22:00,
2014-04-17 20:42:00,47.0,29.0,-100.00,SW,217,8.0,13.0,49,-99.99,,,-99.99,,2014-04-18 02:42:00,
2014-04-17 20:52:00,47.0,29.0,-100.00,SSW,213,9.0,15.0,50,-99.99,,,-99.99,,2014-04-18 02:52:00,
2014-04-17 21:12:00,47.0,30.0,-100.00,SSW,203,10.0,19.0,51,-99.99,,,-99.99,,2014-04-18 03:12:00,
2014-04-17 21:22:00,46.0,29.0,-100.00,South,191,13.0,30.0,51,-99.99,,,-99.99,,2014-04-18 03:22:00,
2014-04-17 21:43:00,47.0,29.0,-100.00,South,188,14.0,27.0,50,-99.99,,,-99.99,,2014-04-18 03:43:00,
2014-04-17 21:54:00,47.0,30.0,-100.00,SSW,194,11.0,22.0,51,-99.99,,,-99.99,,2014-04-18 03:54:00,
2014-04-17 22:13:00,46.0,29.0,-100.00,South,187,14.0,22.0,52,-99.99,,,-99.99,,2014-04-18 04:13:00,
2014-04-17 22:23:00,47.0,30.0,-100.00,South,177,19.0,26.0,51,-99.99,,,-99.99,,2014-04-18 04:23:00,
2014-04-17 22:43:00,47.0,30.0,-100.00,South,176,20.0,27.0,51,-99.99,,,-99.99,,2014-04-18 04:43:00,